Caldwell, NJ

5:35 PM EDT on September 25, 2016 (GMT -0400)
Essex County

Weather History for KCDW - February, 2014

Change the Weather History Date:

Wednesday, February 19, 2014

  Actual Average Record
Temperature  
Mean Temperature 30 °F -  
Max Temperature 43 °F 41 °F 69 °F (1981)
Min Temperature 18 °F 24 °F -2 °F (1958)
Degree Days  
Heating Degree Days 34    
Moisture  
Dew Point 27 °F    
Average Humidity 84    
Maximum Humidity 93    
Minimum Humidity 60    
Precipitation  
Precipitation 0.22 in - - ()
Sea Level Pressure  
Sea Level Pressure 29.88 in    
Wind  
Wind Speed 1 mph (NNE)    
Max Wind Speed 10 mph    
Max Gust Speed 17 mph    
Visibility 4 miles    
Events Rain    
Averages and records for this station are not official NWS values.
T = Trace of Precipitation, MM = Missing Value Source: NWS Daily Summary

Daily Weather History Graph

Daily Weather History Graph

Search for Another Location

Airport or City:

Trip Planner

Search our weather history database for the weather conditions in past years. The results will help you decide how hot, cold, wet, or windy it might be!

Date:

Astronomy

Feb. 19, 2014 Rise Set
Actual Time 6:45 AM EST 5:36 PM EST
Civil Twilight 6:17 AM EST 6:04 PM EST
Nautical Twilight 5:46 AM EST 6:36 PM EST
Astronomical Twilight 5:14 AM EST 7:08 PM EST
Moon 10:29 PM EST (2/19) 8:48 AM EST (2/19)
Length of Visible Light 11h 46m
Length of Day
10h 50m
Waning Gibbous, 80% of the Moon is Illuminated
Feb 19
Waning Gibbous
Feb 22
Last Quarter
Mar 1
New
Mar 8
First Quarter
Mar 16
Full

Hourly Weather History & Observations

Time (EST) Temp. Windchill Dew Point Humidity Pressure Visibility Wind Dir Wind Speed Gust Speed Precip Events Conditions
12:53 AM 21.0 °F - 16.0 °F 81% 30.13 in 7.0 mi Calm Calm - N/A   Clear
1:53 AM 19.9 °F - 16.0 °F 85% 30.12 in 7.0 mi Calm Calm - N/A   Clear
2:53 AM 19.9 °F - 16.0 °F 85% 30.12 in 7.0 mi Calm Calm - N/A   Clear
3:53 AM 19.0 °F - 16.0 °F 88% 30.09 in 6.0 mi Calm Calm - N/A   Clear
4:53 AM 19.9 °F 14.9 °F 17.1 °F 89% 30.07 in 5.0 mi East 3.5 mph - N/A   Clear
5:53 AM 19.9 °F 14.9 °F 16.0 °F 85% 30.02 in 6.0 mi ENE 3.5 mph - N/A   Clear
6:53 AM 18.0 °F - 15.1 °F 88% 30.01 in 4.0 mi Calm Calm - N/A   Clear
7:21 AM 19.4 °F - 15.8 °F 86% 29.98 in 2.5 mi Calm Calm - N/A   Clear
7:28 AM 19.4 °F - 15.8 °F 86% 29.98 in 3.0 mi Calm Calm - N/A   Clear
7:53 AM 19.9 °F 14.9 °F 17.1 °F 89% 30.00 in 3.0 mi East 3.5 mph - N/A   Clear
8:53 AM 30.0 °F 26.5 °F 21.9 °F 72% 29.95 in 5.0 mi North 3.5 mph - N/A   Haze
9:37 AM 30.2 °F 25.4 °F 23.0 °F 75% 29.91 in 5.0 mi NNW 4.6 mph - N/A   Haze
9:53 AM 33.1 °F - 24.1 °F 70% 29.95 in 5.0 mi Calm Calm - N/A   Haze
10:35 AM 33.8 °F - 24.8 °F 70% 29.91 in 4.0 mi Calm Calm - 0.00 in   Overcast
10:45 AM 32.0 °F - 26.6 °F 80% 29.89 in 2.5 mi Calm Calm - 0.01 in Rain Light Rain
10:53 AM 32.0 °F 25.6 °F 26.1 °F 79% 29.89 in 2.5 mi ENE 6.9 mph - 0.02 in   Overcast
11:21 AM 32.0 °F - 28.4 °F 87% 29.86 in 1.2 mi Calm Calm - 0.06 in   Overcast
11:53 AM 34.0 °F - 30.0 °F 85% 29.83 in 1.8 mi Calm Calm - 0.16 in Rain Light Rain
12:10 PM 33.8 °F 29.6 °F 30.2 °F 87% 29.80 in 1.5 mi NNE 4.6 mph - 0.03 in Rain Light Rain
12:39 PM 33.8 °F 30.8 °F 30.2 °F 87% 29.78 in 2.0 mi East 3.5 mph - 0.04 in Rain Light Rain
12:53 PM 34.0 °F - 30.9 °F 89% 29.80 in 2.0 mi Calm Calm - 0.04 in Rain Light Rain
12:55 PM 33.8 °F - 30.2 °F 87% 29.77 in 1.8 mi Calm Calm - 0.00 in Rain Light Rain
1:13 PM 33.8 °F - 30.2 °F 87% 29.75 in 1.5 mi Calm Calm - 0.00 in Rain Light Rain
1:41 PM 35.6 °F - 33.8 °F 93% 29.73 in 1.5 mi Calm Calm - 0.00 in   Overcast
1:53 PM 35.1 °F - 32.0 °F 89% 29.76 in 1.8 mi Calm Calm - 0.00 in   Overcast
2:08 PM 35.6 °F - 33.8 °F 93% 29.72 in 2.0 mi Calm Calm - N/A   Overcast
2:53 PM 37.9 °F - 35.1 °F 89% 29.73 in 2.0 mi Calm Calm - N/A   Overcast
3:49 PM 37.4 °F - 35.6 °F 93% 29.71 in 2.0 mi Calm Calm - N/A   Scattered Clouds
3:53 PM 37.9 °F - 35.1 °F 89% 29.73 in 2.0 mi Calm Calm - N/A   Partly Cloudy
4:21 PM 39.2 °F - 35.6 °F 87% 29.72 in 3.0 mi Calm Calm - N/A   Mostly Cloudy
4:53 PM 39.0 °F - 34.0 °F 82% 29.75 in 3.0 mi Calm Calm - N/A   Haze
5:16 PM 37.4 °F - 33.8 °F 87% 29.74 in 2.5 mi Calm Calm - N/A   Scattered Clouds
5:23 PM 39.2 °F - 35.6 °F 87% 29.75 in 3.0 mi Calm Calm - N/A   Mostly Cloudy
5:53 PM 39.0 °F - 35.1 °F 86% 29.78 in 4.0 mi Calm Calm - 0.00 in   Overcast
6:53 PM 37.9 °F 35.5 °F 34.0 °F 86% 29.81 in 5.0 mi SW 3.5 mph - N/A   Partly Cloudy
7:53 PM 37.0 °F - 33.1 °F 86% 29.84 in 6.0 mi Calm Calm - N/A   Scattered Clouds
8:53 PM 39.9 °F 37.8 °F 34.0 °F 79% 29.90 in 8.0 mi WSW 3.5 mph - 0.00 in Rain Light Rain
9:53 PM 37.9 °F - 33.1 °F 83% 29.94 in 8.0 mi Calm Calm - N/A   Partly Cloudy
10:53 PM 43.0 °F 37.2 °F 32.0 °F 65% 29.98 in 10.0 mi NW 10.4 mph - N/A   Clear
11:53 PM 42.1 °F 36.1 °F 28.9 °F 60% 30.02 in 10.0 mi NW 10.4 mph 17.3 mph N/A   Clear